Location: Bruderhein
(53.8035°N, 112.9265°W)
Time: 10:29:30
(UTC+00:00)

deb Agena D - Pass Details

Date: 16 December 2023
Orbit: 760 x 888 km, 99.8° (Epoch: 04 March)

Event Time Altitude Azimuth Distance (km) Brightness Sun altitude
Rises 13:28:23 0° 145° (SE) 3,450 ? -18.5°
Reaches altitude 10° 13:30:49 10° 142° (SE) 2,502 ? -18.1°
Maximum altitude 13:36:14 57° 65° (ENE) 991 ? -17.3°
Drops below altitude 10° 13:41:31 10° 348° (NNW) 2,436 ? -16.6°
Enters shadow 13:42:49 - 346° (NNW) 2,946 ? -16.4°
